Home > Weather > Florianópolis > Past weeks

Flag for Brazil Past Weather in Florianópolis, Santa Catarina, Brazil — Yesterday and Last 2 Weeks

Now
64 °F

Passing clouds.


Feels Like: 64 °F
Forecast: N/A
Wind: 14 mph from North

Location: Florianopolis Aeroporto

Current Time: Jul 1, 2016 at 5:52:57 PM

Latest Report: Jul 1, 2016 at 5:00 PM


Visibility: N/A

Pressure: 30.18 "Hg

Humidity: 88%

Dew Point: 61 °F

Location of FlorianópolisLocation

Past Weather in Florianópolis — Graph

°F

Florianópolis Temperature Yesterday

Maximum temperature yesterday: 63 °F (at 2:00 PM)
Minimum temperature yesterday: 57 °F (at 12:00 AM)
Average temperature yesterday: 60 °F

High & Low Weather Summary for the Past Weeks

 TemperatureHumidityPressure
High72 °F (Jun 26, 2:00 PM)100% (Jun 16, 11:00 PM)30.42 "Hg (Jun 16, 11:00 PM)
Low48 °F (Jun 20, 4:00 AM)55% (Jun 19, 11:00 PM)30.07 "Hg (Jun 17, 6:00 AM)
Average59 °F90%30.25 "Hg
* Reported Jun 16 5:00 PM — Jul 1 5:00 PM, Florianópolis, Weather by CustomWeather, © 2016

Note: Actual official high and low records may vary slightly from our data, if they occured in-between our weather recording intervals... More about our weather records

Advertising

Florianópolis Weather History for the Previous 24 Hours

Scroll right to see more
 ConditionsComfort  
Time TempWeatherWind HumidityBarometerVisibility
5:00 PM
Fri, Jul 1
64 °FPassing clouds.14 mph88%30.18 "HgN/A
4:00 PM66 °FPassing clouds.10 mph83%30.18 "HgN/A
3:00 PM68 °FPassing clouds.7 mph78%30.18 "HgN/A
2:00 PM66 °FPassing clouds.13 mph83%30.18 "HgN/A
1:00 PM64 °FPassing clouds.15 mph88%30.21 "HgN/A
12:00 PM64 °FScattered clouds.14 mph88%30.27 "HgN/A
11:00 AM63 °FBroken clouds.15 mph94%30.27 "HgN/A
10:00 AM63 °FBroken clouds.13 mph94%30.30 "HgN/A
9:00 AM61 °FBroken clouds.10 mph100%30.30 "HgN/A
8:00 AM61 °FBroken clouds.8 mph100%30.27 "HgN/A
7:00 AM59 °FBroken clouds.2 mph100%30.27 "HgN/A
6:00 AM59 °FPartly cloudy.3 mph100%30.24 "HgN/A
5:00 AM59 °FPartly cloudy.No wind100%30.21 "HgN/A
4:00 AM61 °FPartly cloudy.6 mph94%30.24 "HgN/A
3:00 AM61 °FPassing clouds.9 mph100%30.24 "HgN/A
2:00 AM61 °FPartly cloudy.7 mph100%30.27 "HgN/A
1:00 AM61 °FPartly cloudy.8 mph100%30.27 "HgN/A
12:00 AM61 °FPartly cloudy.10 mph100%30.27 "HgN/A
11:00 PM
Thu, Jun 30
61 °FPartly cloudy.7 mph100%30.27 "HgN/A
10:00 PM61 °FPartly cloudy.5 mph94%30.27 "HgN/A
9:00 PM61 °FPassing clouds.6 mph100%30.27 "HgN/A
8:00 PM59 °FPassing clouds.No wind100%30.27 "HgN/A
7:00 PM61 °FPassing clouds.No wind94%30.27 "HgN/A
6:00 PM61 °FPassing clouds.5 mph94%30.24 "HgN/A
5:00 PM61 °FPartly cloudy.5 mph94%30.24 "HgN/A
Weather by CustomWeather, © 2016

See weather overviewHow to use our weather pages